Tracking 29892 objects as of 21-Nov-2024
HD Live streaming from Space Station
objects crossing your sky now

SL-12 R/B(2)

Track SL-12 R/B(2) now!


NORAD ID: 25788
Int'l Code: 1999-033D
Perigee: 7,338.2 km
Apogee: 35,816.1 km
Inclination: 16.6 °
Period: 775.0 minutes
Semi major axis: 27948 km
RCS: 28.8024 m2 (large)
Launch date: June 18, 1999
Source: Commonwealth of Independent States (former USSR) (CIS)
Launch site: TYURATAM MISSILE AND SPACE COMPLEX (TTMTR)

Note: This is a ROCKET BODY
Your satellite tracking list
Your tracking list is empty




NASA's NSSDC Master Catalog

Two Line Element Set (TLE):
1 25788U 99033D   24325.64458163 -.00000161  00000-0  00000-0 0  9996
2 25788  16.5514  62.2401 5094764 349.1257 230.8586  1.85811872172468
Source of the keplerian elements: AFSPC